02-12-2023, 00:00:02,    351,    0.0,   -3.5,   0.00,   0.00, 1009.8,    0.8, -999.0
02-12-2023, 00:00:12,    351,    0.0,   -3.4,   0.00,   0.00, 1009.8,    0.4, -999.0
02-12-2023, 00:00:22,    351,    0.0,   -3.4,   0.00,   0.00, 1009.8,    0.5, -999.0
02-12-2023, 00:00:32,    351,    0.0,   -3.4,   0.00,   0.00, 1009.8,    0.4, -999.0
02-12-2023, 00:00:42,    351,    0.0,   -3.4,   0.00,   0.00, 1009.8,    0.4, -999.0
02-12-2023, 00:00:52,    351,    0.0,   -3.4,   0.00,   0.00, 1009.8,    0.6, -999.0
02-12-2023, 00:01:02,      0,    0.0,   -3.4,   0.00,   0.00, 1009.8,    0.6, -999.0
02-12-2023, 00:01:12,      0,    0.4,   -3.4,   0.00,   0.00, 1009.9,    0.7, -999.0
02-12-2023, 00:01:22,      0,    0.0,   -3.4,   0.00,   0.00, 1009.8,    0.3, -999.0
02-12-2023, 00:01:32,      0,    0.0,   -3.4,   0.00,   0.00, 1009.8,    0.6, -999.0
02-12-2023, 00:01:42,      0,    0.0,   -3.4,   0.00,   0.00, 1009.8,    0.6, -999.0
02-12-2023, 00:01:52,     13,    0.0,   -3.5,   0.00,   0.00, 1009.8,    0.3, -999.0
02-12-2023, 00:02:02,      2,    0.0,   -3.4,   0.00,   0.00, 1009.8,    0.3, -999.0
02-12-2023, 00:02:12,     14,    0.0,   -3.4,   0.00,   0.00, 1009.8,    0.8, -999.0
02-12-2023, 00:02:22,      0,    0.0,   -3.4,   0.00,   0.00, 1009.8,    0.3, -999.0
02-12-2023, 00:02:32,      2,    0.0,   -3.4,   0.00,   0.00, 1009.8,    0.4, -999.0
02-12-2023, 00:02:41,      0,    0.0,   -3.4,   0.00,   0.00, 1009.8,    0.5, -999.0
02-12-2023, 00:02:52,      0,    0.0,   -3.4,   0.00,   0.00, 1009.8,    0.5, -999.0
02-12-2023, 00:03:02,      0,    0.0,   -3.4,   0.00,   0.00, 1009.8,    0.4, -999.0
02-12-2023, 00:03:12,     10,    0.0,   -3.4,   0.00,   0.00, 1009.8,    0.4, -999.0
02-12-2023, 00:03:21,      0,    0.0,   -3.4,   0.00,   0.00, 1009.9,    0.5, -999.0
02-12-2023, 00:03:32,      0,    0.0,   -3.5,   0.00,   0.00, 1009.8,    0.5, -999.0
02-12-2023, 00:03:42,     13,    0.0,   -3.4,   0.00,   0.00, 1009.8,    0.3, -999.0
02-12-2023, 00:03:51,      0,    0.0,   -3.5,   0.00,   0.00, 1009.8,    0.4, -999.0
02-12-2023, 00:04:02,    331,    0.7,   -3.4,   0.00,   0.00, 1009.9,    0.5, -999.0
02-12-2023, 00:04:12,    339,    1.3,   -3.4,   0.00,   0.00, 1010.0,    0.6, -999.0
02-12-2023, 00:04:22,    339,    0.4,   -3.5,   0.00,   0.00, 1009.9,    0.4, -999.0
02-12-2023, 00:04:31,    340,    0.0,   -3.6,   0.00,   0.00, 1009.8,    0.4, -999.0
02-12-2023, 00:04:42,    339,    0.0,   -3.6,   0.00,   0.00, 1009.9,    0.4, -999.0
02-12-2023, 00:04:52,    340,    0.0,   -3.5,   0.00,   0.00, 1009.8,    0.4, -999.0
02-12-2023, 00:05:01,    350,    0.0,   -3.6,   0.00,   0.00, 1009.8,    0.5, -999.0
02-12-2023, 00:05:11,    348,    0.1,   -3.6,   0.00,   0.00, 1009.8,    0.7, -999.0
02-12-2023, 00:05:22,    348,    0.0,   -3.6,   0.00,   0.00, 1009.8,    0.5, -999.0
02-12-2023, 00:05:31,    348,    0.0,   -3.6,   0.00,   0.00, 1009.8,    0.4, -999.0
02-12-2023, 00:05:41,    348,    0.0,   -3.6,   0.00,   0.00, 1009.8,    0.7, -999.0
02-12-2023, 00:05:51,    347,    0.0,   -3.6,   0.00,   0.00, 1009.8,    0.5, -999.0
02-12-2023, 00:06:02,    348,    0.0,   -3.6,   0.00,   0.00, 1009.8,    0.5, -999.0
02-12-2023, 00:06:11,    348,    0.0,   -3.6,   0.00,   0.00, 1009.8,    0.5, -999.0
02-12-2023, 00:06:21,    348,    0.0,   -3.6,   0.00,   0.00, 1009.8,    0.4, -999.0
02-12-2023, 00:06:31,    348,    0.0,   -3.6,   0.00,   0.00, 1009.8,    0.6, -999.0
02-12-2023, 00:06:42,    348,    0.0,   -3.6,   0.00,   0.00, 1009.8,    0.4, -999.0
02-12-2023, 00:06:51,    348,    0.0,   -3.6,   0.00,   0.00, 1009.8,    0.5, -999.0
02-12-2023, 00:07:01,    348,    0.0,   -3.6,   0.00,   0.00, 1009.8,    0.4, -999.0
02-12-2023, 00:07:11,    348,    0.0,   -3.6,   0.00,   0.00, 1009.8,    0.5, -999.0
02-12-2023, 00:07:21,    348,    0.0,   -3.6,   0.00,   0.00, 1009.8,    0.4, -999.0
02-12-2023, 00:07:31,    348,    0.0,   -3.6,   0.00,   0.00, 1009.9,    0.5, -999.0
02-12-2023, 00:07:41,    348,    0.1,   -3.6,   0.00,   0.00, 1009.9,    0.6, -999.0
02-12-2023, 00:07:51,    348,    0.0,   -3.7,   0.00,   0.00, 1009.8,    0.6, -999.0
02-12-2023, 00:08:01,    348,    0.0,   -3.7,   0.00,   0.00, 1009.8,    0.4, -999.0
02-12-2023, 00:08:11,    348,    0.0,   -3.7,   0.00,   0.00, 1009.8,    0.5, -999.0
02-12-2023, 00:08:21,    348,    0.0,   -3.7,   0.00,   0.00, 1009.8,    0.5, -999.0
02-12-2023, 00:08:31,    348,    0.0,   -3.7,   0.00,   0.00, 1009.8,    0.5, -999.0
02-12-2023, 00:08:41,    348,    0.0,   -3.7,   0.00,   0.00, 1009.8,    0.4, -999.0
02-12-2023, 00:08:51,    348,    0.0,   -3.7,   0.00,   0.00, 1009.8,    0.4, -999.0
02-12-2023, 00:09:01,    347,    0.0,   -3.7,   0.00,   0.00, 1009.8,    0.5, -999.0
02-12-2023, 00:09:11,    348,    0.0,   -3.7,   0.00,   0.00, 1009.8,    0.4, -999.0
02-12-2023, 00:09:21,    348,    0.0,   -3.6,   0.00,   0.00, 1009.8,    0.5, -999.0
02-12-2023, 00:09:31,    348,    0.0,   -3.6,   0.00,   0.00, 1009.8,    0.3, -999.0
02-12-2023, 00:09:41,    348,    0.0,   -3.6,   0.00,   0.00, 1009.8,    0.5, -999.0
02-12-2023, 00:09:51,    348,    0.0,   -3.6,   0.00,   0.00, 1009.8,    0.6, -999.0
02-12-2023, 00:10:01,    348,    0.0,   -3.6,   0.00,   0.00, 1009.8,    0.5, -999.0
02-12-2023, 00:10:11,    348,    0.0,   -3.6,   0.00,   0.00, 1009.8,    0.4, -999.0
02-12-2023, 00:10:21,    348,    0.0,   -3.6,   0.00,   0.00, 1009.8,    0.5, -999.0
02-12-2023, 00:10:31,    348,    0.0,   -3.6,   0.00,   0.00, 1009.8,    0.5, -999.0
02-12-2023, 00:10:41,    348,    0.0,   -3.6,   0.00,   0.00, 1009.8,    0.5, -999.0
02-12-2023, 00:10:51,    347,    0.0,   -3.6,   0.00,   0.00, 1009.8,    0.4, -999.0
02-12-2023, 00:11:01,    348,    0.0,   -3.5,   0.00,   0.00, 1009.8,    0.5, -999.0
02-12-2023, 00:11:11,    348,    0.0,   -3.6,   0.00,   0.00, 1009.8,    0.4, -999.0
02-12-2023, 00:11:21,    348,    0.0,   -3.6,   0.00,   0.00, 1009.8,    0.5, -999.0
02-12-2023, 00:11:31,    348,    0.0,   -3.7,   0.00,   0.00, 1009.8,    0.4, -999.0
02-12-2023, 00:11:41,    348,    0.0,   -3.6,   0.00,   0.00, 1009.8,    0.6, -999.0
02-12-2023, 00:11:51,    348,    0.0,   -3.6,   0.00,   0.00, 1009.8,    0.4, -999.0
02-12-2023, 00:12:01,    348,    0.0,   -3.6,   0.00,   0.00, 1009.8,    0.3, -999.0
02-12-2023, 00:12:11,    348,    0.0,   -3.6,   0.00,   0.00, 1009.8,    0.4, -999.0
02-12-2023, 00:12:21,    348,    0.0,   -3.6,   0.00,   0.00, 1009.8,    0.5, -999.0
02-12-2023, 00:12:31,    348,    0.0,   -3.6,   0.00,   0.00, 1009.8,    0.5, -999.0
02-12-2023, 00:12:41,    348,    0.0,   -3.6,   0.00,   0.00, 1009.8,    0.6, -999.0
02-12-2023, 00:12:51,    348,    0.0,   -3.5,   0.00,   0.00, 1009.8,    0.7, -999.0
02-12-2023, 00:13:01,    348,    0.0,   -3.6,   0.00,   0.00, 1009.8,    0.4, -999.0
02-12-2023, 00:13:11,    348,    0.0,   -3.6,   0.00,   0.00, 1009.8,    0.4, -999.0
02-12-2023, 00:13:21,    348,    0.0,   -3.6,   0.00,   0.00, 1009.8,    0.5, -999.0
02-12-2023, 00:13:30,    348,    0.0,   -3.7,   0.00,   0.00, 1009.8,    0.5, -999.0
02-12-2023, 00:13:41,    348,    0.0,   -3.7,   0.00,   0.00, 1009.8,    0.6, -999.0
02-12-2023, 00:13:51,    348,    0.0,   -3.7,   0.00,   0.00, 1009.8,    0.5, -999.0
02-12-2023, 00:14:01,    348,    0.0,   -3.7,   0.00,   0.00, 1009.8,    0.4, -999.0
02-12-2023, 00:14:11,    348,    0.0,   -3.6,   0.00,   0.00, 1009.8,    0.4, -999.0
02-12-2023, 00:14:21,    348,    0.0,   -3.7,   0.00,   0.00, 1009.8,    0.6, -999.0
02-12-2023, 00:14:31,    347,    0.0,   -3.6,   0.00,   0.00, 1009.8,    0.7, -999.0
02-12-2023, 00:14:40,    348,    0.0,   -3.6,   0.00,   0.00, 1009.8,    0.5, -999.0
02-12-2023, 00:14:51,    348,    0.0,   -3.5,   0.00,   0.00, 1009.8,    0.5, -999.0
02-12-2023, 00:15:01,    348,    0.0,   -3.6,   0.00,   0.00, 1009.8,    0.5, -999.0
02-12-2023, 00:15:10,    348,    0.0,   -3.6,   0.00,   0.00, 1009.8,    0.6, -999.0
02-12-2023, 00:15:20,    348,    0.1,   -3.5,   0.00,   0.00, 1009.9,    0.5, -999.0
02-12-2023, 00:15:31,    348,    0.0,   -3.5,   0.00,   0.00, 1009.8,    0.4, -999.0
02-12-2023, 00:15:41,    348,    0.0,   -3.6,   0.00,   0.00, 1009.8,    0.5, -999.0
02-12-2023, 00:15:50,    348,    0.0,   -3.6,   0.00,   0.00, 1009.8,    0.5, -999.0
02-12-2023, 00:16:00,    348,    0.0,   -3.6,   0.00,   0.00, 1009.8,    0.3, -999.0
02-12-2023, 00:16:11,    348,    0.0,   -3.7,   0.00,   0.00, 1009.8,    0.4, -999.0
02-12-2023, 00:16:20,    348,    0.0,   -3.7,   0.00,   0.00, 1009.8,    0.5, -999.0
02-12-2023, 00:16:30,    348,    0.0,   -3.6,   0.00,   0.00, 1009.8,    0.4, -999.0
02-12-2023, 00:16:40,    348,    0.0,   -3.6,   0.00,   0.00, 1009.8,    0.4, -999.0
02-12-2023, 00:16:51,    348,    0.0,   -3.7,   0.00,   0.00, 1009.8,    0.5, -999.0
02-12-2023, 00:17:00,    348,    0.0,   -3.6,   0.00,   0.00, 1009.8,    0.3, -999.0
02-12-2023, 00:17:10,    348,    0.0,   -3.5,   0.00,   0.00, 1009.8,    0.4, -999.0
02-12-2023, 00:17:20,    348,    0.0,   -3.6,   0.00,   0.00, 1009.8,    0.6, -999.0
02-12-2023, 00:17:30,    348,    0.0,   -3.5,   0.00,   0.00, 1009.8,    0.5, -999.0
02-12-2023, 00:17:40,    348,    0.0,   -3.6,   0.00,   0.00, 1009.8,    0.4, -999.0
02-12-2023, 00:17:50,    348,    0.0,   -3.5,   0.00,   0.00, 1009.8,    0.6, -999.0
02-12-2023, 00:18:01,    348,    0.0,   -3.5,   0.00,   0.00, 1009.8,    0.5, -999.0
02-12-2023, 00:18:10,    348,    0.0,   -3.5,   0.00,   0.00, 1009.8,    0.5, -999.0
02-12-2023, 00:18:20,    348,    0.0,   -3.5,   0.00,   0.00, 1009.8,    0.3, -999.0
02-12-2023, 00:18:30,    348,    0.0,   -3.5,   0.00,   0.00, 1009.8,    0.6, -999.0
02-12-2023, 00:18:40,    347,    0.0,   -3.5,   0.00,   0.00, 1009.8,    0.5, -999.0
02-12-2023, 00:18:50,    348,    0.0,   -3.5,   0.00,   0.00, 1009.8,    0.4, -999.0
02-12-2023, 00:19:00,    348,    0.0,   -3.5,   0.00,   0.00, 1009.8,    0.5, -999.0
02-12-2023, 00:19:10,    348,    0.0,   -3.5,   0.00,   0.00, 1009.8,    0.5, -999.0
02-12-2023, 00:19:20,    348,    0.0,   -3.5,   0.00,   0.00, 1009.8,    0.4, -999.0
02-12-2023, 00:19:30,    348,    0.0,   -3.4,   0.00,   0.00, 1009.8,    0.5, -999.0
02-12-2023, 00:19:40,    348,    0.0,   -3.5,   0.00,   0.00, 1009.8,    0.5, -999.0
02-12-2023, 00:19:50,    348,    0.0,   -3.6,   0.00,   0.00, 1009.8,    0.7, -999.0
02-12-2023, 00:20:00,    348,    0.0,   -3.6,   0.00,   0.00, 1009.8,    0.5, -999.0
02-12-2023, 00:20:10,    348,    0.0,   -3.5,   0.00,   0.00, 1009.8,    0.5, -999.0
02-12-2023, 00:20:20,    348,    0.0,   -3.5,   0.00,   0.00, 1009.8,    0.5, -999.0
02-12-2023, 00:20:30,    348,    0.0,   -3.5,   0.00,   0.00, 1009.8,    0.7, -999.0
02-12-2023, 00:20:40,    348,    0.0,   -3.5,   0.00,   0.00, 1009.8,    0.3, -999.0
02-12-2023, 00:20:50,    348,    0.0,   -3.4,   0.00,   0.00, 1009.8,    0.4, -999.0
02-12-2023, 00:21:00,    348,    0.0,   -3.5,   0.00,   0.00, 1009.8,    0.5, -999.0
02-12-2023, 00:21:10,    348,    0.0,   -3.4,   0.00,   0.00, 1009.8,    0.4, -999.0
02-12-2023, 00:21:20,    348,    0.0,   -3.5,   0.00,   0.00, 1009.8,    0.8, -999.0
02-12-2023, 00:21:30,    348,    0.0,   -3.4,   0.00,   0.00, 1009.8,    0.0, -999.0
02-12-2023, 00:21:40,    348,    0.0,   -3.4,   0.00,   0.00, 1009.8,    0.7, -999.0
02-12-2023, 00:21:50,    348,    0.0,   -3.4,   0.00,   0.00, 1009.8,    0.3, -999.0
02-12-2023, 00:22:00,    348,    0.0,   -3.4,   0.00,   0.00, 1009.8,    0.1, -999.0
02-12-2023, 00:22:10,    348,    0.0,   -3.4,   0.00,   0.00, 1009.8,    0.5, -999.0
02-12-2023, 00:22:20,    348,    0.0,   -3.5,   0.00,   0.00, 1009.8,    0.8, -999.0
02-12-2023, 00:22:30,    348,    0.0,   -3.4,   0.00,   0.00, 1009.8,    0.3, -999.0
02-12-2023, 00:22:40,    348,    0.0,   -3.4,   0.00,   0.00, 1009.8,    0.8, -999.0
02-12-2023, 00:22:50,    348,    0.0,   -3.4,   0.00,   0.00, 1009.8,    0.2, -999.0
02-12-2023, 00:23:00,    348,    0.0,   -3.4,   0.00,   0.00, 1009.8,    0.5, -999.0
02-12-2023, 00:23:10,    348,    0.0,   -3.3,   0.00,   0.00, 1009.8,    0.6, -999.0
02-12-2023, 00:23:20,    348,    0.0,   -3.3,   0.00,   0.00, 1009.8,    0.5, -999.0
02-12-2023, 00:23:30,    347,    0.0,   -3.4,   0.00,   0.00, 1009.8,    0.3, -999.0
02-12-2023, 00:23:40,    348,    0.0,   -3.4,   0.00,   0.00, 1009.8,    0.6, -999.0
02-12-2023, 00:23:50,    348,    0.0,   -3.4,   0.00,   0.00, 1009.8,    0.3, -999.0
02-12-2023, 00:24:00,    348,    0.0,   -3.5,   0.00,   0.00, 1009.8,    0.5, -999.0
02-12-2023, 00:24:10,    348,    0.0,   -3.4,   0.00,   0.00, 1009.8,    0.4, -999.0
02-12-2023, 00:24:20,    348,    0.0,   -3.4,   0.00,   0.00, 1009.8,    0.4, -999.0
02-12-2023, 00:24:30,    348,    0.0,   -3.4,   0.00,   0.00, 1009.8,    0.5, -999.0
02-12-2023, 00:24:40,    348,    0.0,   -3.4,   0.00,   0.00, 1009.8,    0.1, -999.0
02-12-2023, 00:24:49,    348,    0.0,   -3.4,   0.00,   0.00, 1009.8,    0.5, -999.0
02-12-2023, 00:25:00,    348,    0.0,   -3.5,   0.00,   0.00, 1009.8,    0.5, -999.0
02-12-2023, 00:25:10,    348,    0.0,   -3.5,   0.00,   0.00, 1009.8,    0.1, -999.0
02-12-2023, 00:25:20,    348,    0.0,   -3.5,   0.00,   0.00, 1009.8,    0.5, -999.0
02-12-2023, 00:25:29,    347,    0.0,   -3.6,   0.00,   0.00, 1009.8,    0.5, -999.0
02-12-2023, 00:25:40,    348,    0.0,   -3.6,   0.00,   0.00, 1009.8,    0.5, -999.0
02-12-2023, 00:25:50,    348,    0.0,   -3.6,   0.00,   0.00, 1009.8,    0.4, -999.0
02-12-2023, 00:25:59,    348,    0.0,   -3.6,   0.00,   0.00, 1009.8,    0.5, -999.0
02-12-2023, 00:26:09,    348,    0.0,   -3.6,   0.00,   0.00, 1009.8,    0.9, -999.0
02-12-2023, 00:26:20,    348,    0.0,   -3.5,   0.00,   0.00, 1009.8,    0.3, -999.0
02-12-2023, 00:26:29,    348,    0.0,   -3.5,   0.00,   0.00, 1009.8,    0.9, -999.0
02-12-2023, 00:26:39,    348,    0.0,   -3.4,   0.00,   0.00, 1009.8,    0.0, -999.0
02-12-2023, 00:26:49,    348,    0.0,   -3.4,   0.00,   0.00, 1009.8,    0.2, -999.0
02-12-2023, 00:27:00,    348,    0.0,   -3.4,   0.00,   0.00, 1009.8,    0.6, -999.0
02-12-2023, 00:27:09,    348,    0.0,   -3.4,   0.00,   0.00, 1009.8,    0.3, -999.0
02-12-2023, 00:27:19,    348,    0.0,   -3.3,   0.00,   0.00, 1009.8,    0.5, -999.0
02-12-2023, 00:27:29,    348,    0.0,   -3.3,   0.00,   0.00, 1009.8,    0.4, -999.0
02-12-2023, 00:27:40,    348,    0.0,   -3.3,   0.00,   0.00, 1009.8,    0.3, -999.0
02-12-2023, 00:27:49,    348,    0.0,   -3.4,   0.00,   0.00, 1009.8,    0.3, -999.0
02-12-2023, 00:27:59,    348,    0.0,   -3.4,   0.00,   0.00, 1009.8,    0.4, -999.0
02-12-2023, 00:28:10,    348,    0.0,   -3.4,   0.00,   0.00, 1009.8,    0.4, -999.0
02-12-2023, 00:28:19,    348,    0.0,   -3.3,   0.00,   0.00, 1009.8,    0.6, -999.0
02-12-2023, 00:28:29,    348,    0.0,   -3.3,   0.00,   0.00, 1009.8,    0.3, -999.0
02-12-2023, 00:28:39,    348,    0.0,   -3.3,   0.00,   0.00, 1009.8,    0.3, -999.0
02-12-2023, 00:28:50,    348,    0.0,   -3.4,   0.00,   0.00, 1009.8,    0.5, -999.0
02-12-2023, 00:28:59,    348,    0.0,   -3.4,   0.00,   0.00, 1009.8,    0.5, -999.0
02-12-2023, 00:29:09,    348,    0.0,   -3.3,   0.00,   0.00, 1009.8,    0.4, -999.0
02-12-2023, 00:29:19,    348,    0.0,   -3.3,   0.00,   0.00, 1009.8,    0.5, -999.0
02-12-2023, 00:29:29,    348,    0.0,   -3.3,   0.00,   0.00, 1009.8,    0.4, -999.0
02-12-2023, 00:29:39,    348,    0.0,   -3.3,   0.00,   0.00, 1009.8,    0.3, -999.0
02-12-2023, 00:29:49,    348,    0.0,   -3.3,   0.00,   0.00, 1009.8,    0.5, -999.0
02-12-2023, 00:29:59,    348,    0.0,   -3.3,   0.00,   0.00, 1009.8,    0.6, -999.0
02-12-2023, 00:30:09,    348,    0.0,   -3.3,   0.00,   0.00, 1009.7,    0.6, -999.0
02-12-2023, 00:30:19,    348,    0.0,   -3.3,   0.00,   0.00, 1009.7,    0.5, -999.0
02-12-2023, 00:30:29,    348,    0.0,   -3.4,   0.00,   0.00, 1009.8,    0.6, -999.0
02-12-2023, 00:30:39,    348,    0.0,   -3.4,   0.00,   0.00, 1009.7,    0.4, -999.0
02-12-2023, 00:30:49,    348,    0.0,   -3.4,   0.00,   0.00, 1009.7,    0.3, -999.0
02-12-2023, 00:30:59,    348,    0.0,   -3.4,   0.00,   0.00, 1009.7,    0.5, -999.0
02-12-2023, 00:31:09,    348,    0.0,   -3.3,   0.00,   0.00, 1009.8,    0.9, -999.0
02-12-2023, 00:31:19,    348,    0.0,   -3.3,   0.00,   0.00, 1009.8,    0.5, -999.0
02-12-2023, 00:31:29,    347,    0.0,   -3.4,   0.00,   0.00, 1009.8,    0.4, -999.0
02-12-2023, 00:31:39,    348,    0.0,   -3.4,   0.00,   0.00, 1009.7,    0.6, -999.0
02-12-2023, 00:31:49,    348,    0.0,   -3.3,   0.00,   0.00, 1009.7,    0.5, -999.0
02-12-2023, 00:31:59,    348,    0.0,   -3.3,   0.00,   0.00, 1009.7,    0.2, -999.0
02-12-2023, 00:32:09,    348,    0.0,   -3.4,   0.00,   0.00, 1009.7,    1.0, -999.0
02-12-2023, 00:32:19,    347,    0.0,   -3.3,   0.00,   0.00, 1009.7,    0.8, -999.0
02-12-2023, 00:32:29,    348,    0.0,   -3.3,   0.00,   0.00, 1009.7,    0.1, -999.0
02-12-2023, 00:32:39,    348,    0.0,   -3.5,   0.00,   0.00, 1009.7,    0.4, -999.0
02-12-2023, 00:32:49,    348,    0.0,   -3.4,   0.00,   0.00, 1009.7,    0.5, -999.0
02-12-2023, 00:32:59,    348,    0.0,   -3.4,   0.00,   0.00, 1009.7,    0.4, -999.0
02-12-2023, 00:33:09,    348,    0.0,   -3.4,   0.00,   0.00, 1009.7,    0.5, -999.0
02-12-2023, 00:33:19,    348,    0.0,   -3.4,   0.00,   0.00, 1009.7,    0.4, -999.0
02-12-2023, 00:33:29,    348,    0.0,   -3.4,   0.00,   0.00, 1009.7,    0.3, -999.0
02-12-2023, 00:33:40,    348,    0.0,   -3.5,   0.00,   0.00, 1009.7,    0.4, -999.0
02-12-2023, 00:33:49,    348,    0.0,   -3.4,   0.00,   0.00, 1009.7,    0.3, -999.0
02-12-2023, 00:33:59,    348,    0.0,   -3.5,   0.00,   0.00, 1009.7,    0.5, -999.0
02-12-2023, 00:34:09,    348,    0.0,   -3.5,   0.00,   0.00, 1009.7,    0.5, -999.0
02-12-2023, 00:34:19,    348,    0.0,   -3.5,   0.00,   0.00, 1009.7,    0.5, -999.0
02-12-2023, 00:34:29,    348,    0.0,   -3.5,   0.00,   0.00, 1009.7,    0.4, -999.0
02-12-2023, 00:34:38,    348,    0.0,   -3.4,   0.00,   0.00, 1009.7,    0.5, -999.0
02-12-2023, 00:34:49,    348,    0.0,   -3.4,   0.00,   0.00, 1009.7,    0.4, -999.0
02-12-2023, 00:34:59,     20,    0.0,   -3.4,   0.00,   0.00, 1009.8,    0.4, -999.0
02-12-2023, 00:35:09,     19,    0.0,   -3.4,   0.00,   0.00, 1009.7,    0.4, -999.0
02-12-2023, 00:35:19,     19,    0.0,   -3.4,   0.00,   0.00, 1009.7,    0.6, -999.0
02-12-2023, 00:35:29,     19,    0.0,   -3.5,   0.00,   0.00, 1009.7,    0.5, -999.0
02-12-2023, 00:35:39,     19,    0.0,   -3.4,   0.00,   0.00, 1009.7,    0.4, -999.0
02-12-2023, 00:35:49,     19,    0.0,   -3.4,   0.00,   0.00, 1009.7,    0.4, -999.0
02-12-2023, 00:35:58,     19,    0.0,   -3.5,   0.00,   0.00, 1009.7,    0.4, -999.0
02-12-2023, 00:36:09,     19,    0.0,   -3.5,   0.00,   0.00, 1009.7,    0.6, -999.0
02-12-2023, 00:36:19,     19,    0.0,   -3.4,   0.00,   0.00, 1009.7,    0.4, -999.0
02-12-2023, 00:36:28,     19,    0.0,   -3.4,   0.00,   0.00, 1009.7,    0.6, -999.0
02-12-2023, 00:36:39,     19,    0.0,   -3.4,   0.00,   0.00, 1009.7,    0.5, -999.0
02-12-2023, 00:36:49,     19,    0.0,   -3.4,   0.00,   0.00, 1009.7,    0.6, -999.0
02-12-2023, 00:36:58,     19,    0.0,   -3.4,   0.00,   0.00, 1009.7,    0.5, -999.0
02-12-2023, 00:37:08,     19,    0.0,   -3.3,   0.00,   0.00, 1009.7,    0.5, -999.0
02-12-2023, 00:37:19,     19,    0.0,   -3.3,   0.00,   0.00, 1009.7,    0.5, -999.0
02-12-2023, 00:37:29,     19,    0.0,   -3.3,   0.00,   0.00, 1009.7,    0.4, -999.0
02-12-2023, 00:37:38,     19,    0.0,   -3.3,   0.00,   0.00, 1009.7,    0.3, -999.0
02-12-2023, 00:37:48,     19,    0.0,   -3.3,   0.00,   0.00, 1009.7,    0.3, -999.0
02-12-2023, 00:37:59,     19,    0.0,   -3.3,   0.00,   0.00, 1009.7,    0.5, -999.0
02-12-2023, 00:38:08,     19,    0.0,   -3.3,   0.00,   0.00, 1009.8,    0.5, -999.0
02-12-2023, 00:38:18,     19,    0.0,   -3.3,   0.00,   0.00, 1009.7,    0.4, -999.0
02-12-2023, 00:38:28,     19,    0.0,   -3.3,   0.00,   0.00, 1009.8,    0.4, -999.0
02-12-2023, 00:38:39,     19,    0.0,   -3.3,   0.00,   0.00, 1009.7,    0.3, -999.0
02-12-2023, 00:38:48,     19,    0.0,   -3.3,   0.00,   0.00, 1009.7,    0.6, -999.0
02-12-2023, 00:38:58,     19,    0.0,   -3.3,   0.00,   0.00, 1009.7,    0.6, -999.0
02-12-2023, 00:39:08,     19,    0.0,   -3.3,   0.00,   0.00, 1009.7,    0.4, -999.0
02-12-2023, 00:39:18,     19,    0.0,   -3.3,   0.00,   0.00, 1009.7,    0.7, -999.0
02-12-2023, 00:39:28,     19,    0.0,   -3.3,   0.00,   0.00, 1009.7,    0.5, -999.0
02-12-2023, 00:39:38,     19,    0.0,   -3.3,   0.00,   0.00, 1009.7,    0.6, -999.0
02-12-2023, 00:39:48,     19,    0.0,   -3.3,   0.00,   0.00, 1009.8,    0.4, -999.0
02-12-2023, 00:39:58,     19,    0.0,   -3.4,   0.00,   0.00, 1009.8,    0.6, -999.0
02-12-2023, 00:40:08,     19,    0.0,   -3.4,   0.00,   0.00, 1009.7,    0.4, -999.0
02-12-2023, 00:40:18,     19,    0.0,   -3.3,   0.00,   0.00, 1009.7,    0.4, -999.0
02-12-2023, 00:40:28,     19,    0.0,   -3.3,   0.00,   0.00, 1009.8,    0.4, -999.0
02-12-2023, 00:40:38,     19,    0.0,   -3.3,   0.00,   0.00, 1009.8,    0.5, -999.0
02-12-2023, 00:40:48,     19,    0.0,   -3.3,   0.00,   0.00, 1009.8,    0.4, -999.0
02-12-2023, 00:40:58,     19,    0.0,   -3.3,   0.00,   0.00, 1009.8,    0.4, -999.0
02-12-2023, 00:41:08,     19,    0.0,   -3.3,   0.00,   0.00, 1009.7,    0.4, -999.0
02-12-2023, 00:41:18,     19,    0.0,   -3.2,   0.00,   0.00, 1009.8,    0.5, -999.0
02-12-2023, 00:41:28,     18,    0.0,   -3.2,   0.00,   0.00, 1009.8,    0.6, -999.0
02-12-2023, 00:41:38,     18,    0.0,   -3.2,   0.00,   0.00, 1009.8,    0.6, -999.0
02-12-2023, 00:41:48,     18,    0.0,   -3.3,   0.00,   0.00, 1009.7,    0.7, -999.0
02-12-2023, 00:41:58,     18,    0.0,   -3.3,   0.00,   0.00, 1009.8,    0.3, -999.0
02-12-2023, 00:42:08,     18,    0.0,   -3.3,   0.00,   0.00, 1009.8,    0.6, -999.0
02-12-2023, 00:42:18,     18,    0.0,   -3.3,   0.00,   0.00, 1009.7,    0.5, -999.0
02-12-2023, 00:42:28,     18,    0.0,   -3.3,   0.00,   0.00, 1009.7,    0.4, -999.0
02-12-2023, 00:42:38,     18,    0.0,   -3.3,   0.00,   0.00, 1009.8,    0.5, -999.0
02-12-2023, 00:42:48,     18,    0.0,   -3.3,   0.00,   0.00, 1009.8,    0.4, -999.0
02-12-2023, 00:42:58,     18,    0.0,   -3.4,   0.00,   0.00, 1009.8,    0.4, -999.0
02-12-2023, 00:43:08,     18,    0.0,   -3.3,   0.00,   0.00, 1009.8,    0.6, -999.0
02-12-2023, 00:43:18,     18,    0.0,   -3.3,   0.00,   0.00, 1009.8,    0.6, -999.0
02-12-2023, 00:43:28,     18,    0.0,   -3.3,   0.00,   0.00, 1009.7,    0.4, -999.0
02-12-2023, 00:43:38,     18,    0.0,   -3.4,   0.00,   0.00, 1009.8,    0.4, -999.0
02-12-2023, 00:43:48,     18,    0.0,   -3.3,   0.00,   0.00, 1009.8,    0.5, -999.0
02-12-2023, 00:43:58,     18,    0.0,   -3.4,   0.00,   0.00, 1009.8,    0.3, -999.0
02-12-2023, 00:44:08,     18,    0.0,   -3.3,   0.00,   0.00, 1009.8,    0.6, -999.0
02-12-2023, 00:44:18,     18,    0.0,   -3.3,   0.00,   0.00, 1009.8,    0.5, -999.0
02-12-2023, 00:44:28,     18,    0.0,   -3.3,   0.00,   0.00, 1009.8,    0.6, -999.0
02-12-2023, 00:44:38,     18,    0.0,   -3.3,   0.00,   0.00, 1009.8,    0.5, -999.0
02-12-2023, 00:44:48,     18,    0.0,   -3.3,   0.00,   0.00, 1009.7,    0.3, -999.0
02-12-2023, 00:44:58,     18,    0.0,   -3.3,   0.00,   0.00, 1009.8,    0.4, -999.0
02-12-2023, 00:45:08,     19,    0.0,   -3.3,   0.00,   0.00, 1009.8,    0.5, -999.0
02-12-2023, 00:45:18,     18,    0.0,   -3.3,   0.00,   0.00, 1009.8,    0.5, -999.0
02-12-2023, 00:45:28,     18,    0.0,   -3.4,   0.00,   0.00, 1009.8,    0.3, -999.0
02-12-2023, 00:45:38,     18,    0.0,   -3.3,   0.00,   0.00, 1009.7,    0.5, -999.0
02-12-2023, 00:45:48,     18,    0.0,   -3.3,   0.00,   0.00, 1009.7,    0.3, -999.0
02-12-2023, 00:45:58,     18,    0.0,   -3.2,   0.00,   0.00, 1009.7,    0.3, -999.0
02-12-2023, 00:46:07,     18,    0.0,   -3.2,   0.00,   0.00, 1009.7,    0.4, -999.0
02-12-2023, 00:46:18,     18,    0.0,   -3.2,   0.00,   0.00, 1009.7,    0.5, -999.0
02-12-2023, 00:46:28,     18,    0.0,   -3.3,   0.00,   0.00, 1009.7,    0.5, -999.0
02-12-2023, 00:46:38,     18,    0.0,   -3.2,   0.00,   0.00, 1009.7,    0.4, -999.0
02-12-2023, 00:46:47,     19,    0.0,   -3.2,   0.00,   0.00, 1009.7,    0.4, -999.0